When you browse on this site, cookies collect data to enhance your experience and personalize the content and advertising you see.
Visit our Privacy Policy to learn more. By continuing to use the site, you agree to this use of cookies and data.
  • In Romania
  • List of Countries
  • For 7 days
  • Water Temperature
  • Satellite Maps
  • Weather Map
  • Weather Widgets
  • user-avatar
    Login

    Hourly Weather La-Plata

    Today, 24 June, Monday

    Time Temperature Precipitation Wind Pressure Humidity
    00:00 +14°C° 0 mm 1 mps 756 mmHg 94%
    01:00 +13°C° 0 mm 1 mps 757 mmHg 94%
    02:00 +13°C° 0 mm 1 mps 757 mmHg 93%
    03:00 +12°C° 0 mm 1 mps 756 mmHg 92%
    04:00 +12°C° 0 mm 2 mps 756 mmHg 91%
    05:00 +12°C° 0 mm 2 mps 756 mmHg 90%
    06:00 +12°C° 0 mm 2 mps 756 mmHg 89%
    07:00 +12°C° 0 mm 2 mps 756 mmHg 89%
    08:00 +12°C° 0 mm 2 mps 756 mmHg 88%
    09:00 +14°C° 0 mm 2 mps 756 mmHg 85%
    10:00 +14°C° 0 mm 3 mps 755 mmHg 82%
    11:00 +15°C° 0 mm 4 mps 754 mmHg 79%
    12:00 +15°C° 0 mm 4 mps 753 mmHg 78%
    13:00 +17°C° 0 mm 4 mps 752 mmHg 78%
    14:00 +17°C° 0 mm 4 mps 752 mmHg 78%
    15:00 +15°C° 0 mm 4 mps 751 mmHg 81%
    16:00 +15°C° 0 mm 4 mps 750 mmHg 85%
    17:00 +14°C° 0 mm 4 mps 749 mmHg 88%
    18:00 +15°C° 0 mm 4 mps 749 mmHg 90%
    19:00 +15°C° 0 mm 4 mps 749 mmHg 92%
    20:00 +15°C° 0 mm 4 mps 749 mmHg 94%
    21:00 +15°C° 0.3 mm 4 mps 748 mmHg 95%
    22:00 +15°C° 0.3 mm 5 mps 748 mmHg 95%
    23:00 +16°C° 0.3 mm 5 mps 748 mmHg 96%

    Tomorrow, 25 June, Tuesday

    Time Temperature Precipitation Wind Pressure Humidity
    00:00 +14°C° 0.7 mm 7 mps 748 mmHg 93%
    01:00 +11°C° 0.7 mm 8 mps 748 mmHg 91%
    02:00 +10°C° 0.7 mm 9 mps 749 mmHg 88%
    03:00 +10°C° 0.4 mm 9 mps 750 mmHg 87%
    04:00 +10°C° 0.4 mm 9 mps 751 mmHg 86%
    05:00 +9°C° 0.4 mm 8 mps 752 mmHg 85%
    06:00 +9°C° 0.1 mm 8 mps 753 mmHg 83%
    07:00 +7°C° 0.1 mm 9 mps 753 mmHg 81%
    08:00 +6°C° 0.1 mm 9 mps 754 mmHg 79%
    09:00 +6°C° 0 mm 9 mps 755 mmHg 71%
    10:00 +7°C° 0 mm 9 mps 755 mmHg 64%
    11:00 +7°C° 0 mm 10 mps 756 mmHg 56%
    12:00 +7°C° 0 mm 9 mps 756 mmHg 53%
    13:00 +8°C° 0 mm 9 mps 756 mmHg 51%
    14:00 +8°C° 0 mm 9 mps 756 mmHg 49%
    15:00 +7°C° 0 mm 8 mps 757 mmHg 51%
    16:00 +7°C° 0 mm 6 mps 757 mmHg 54%
    17:00 +7°C° 0 mm 5 mps 758 mmHg 57%
    18:00 +6°C° 0 mm 5 mps 758 mmHg 56%
    19:00 +5°C° 0 mm 6 mps 759 mmHg 55%
    20:00 +5°C° 0 mm 6 mps 759 mmHg 54%
    21:00 +5°C° 0 mm 6 mps 759 mmHg 56%
    22:00 +5°C° 0 mm 5 mps 759 mmHg 58%
    23:00 +5°C° 0 mm 5 mps 759 mmHg 60%

    Day after tomorrow, 26 June, Wednesday

    Time Temperature Precipitation Wind Pressure Humidity
    00:00 +5°C° 0 mm 5 mps 759 mmHg 62%
    01:00 +4°C° 0 mm 4 mps 759 mmHg 63%
    02:00 +4°C° 0 mm 4 mps 759 mmHg 65%
    03:00 +4°C° 0 mm 4 mps 759 mmHg 65%
    04:00 +4°C° 0 mm 3 mps 758 mmHg 64%
    05:00 +3°C° 0 mm 3 mps 758 mmHg 64%
    06:00 +4°C° 0 mm 3 mps 759 mmHg 62%
    07:00 +4°C° 0 mm 3 mps 759 mmHg 61%
    08:00 +5°C° 0 mm 4 mps 759 mmHg 60%
    09:00 +7°C° 0 mm 4 mps 759 mmHg 56%
    10:00 +8°C° 0 mm 5 mps 759 mmHg 51%
    11:00 +10°C° 0 mm 5 mps 759 mmHg 47%
    12:00 +12°C° 0 mm 5 mps 759 mmHg 47%
    13:00 +11°C° 0 mm 6 mps 758 mmHg 47%
    14:00 +11°C° 0 mm 6 mps 758 mmHg 47%
    15:00 +10°C° 0 mm 6 mps 758 mmHg 50%
    16:00 +10°C° 0 mm 6 mps 758 mmHg 53%
    17:00 +9°C° 0 mm 6 mps 758 mmHg 57%
    18:00 +9°C° 0 mm 6 mps 758 mmHg 57%
    19:00 +9°C° 0 mm 6 mps 758 mmHg 58%
    20:00 +9°C° 0 mm 6 mps 758 mmHg 58%
    21:00 +8°C° 0 mm 6 mps 758 mmHg 60%
    22:00 +8°C° 0 mm 6 mps 758 mmHg 61%
    23:00 +8°C° 0 mm 6 mps 758 mmHg 62%

    27 June, Thursday

    Time Temperature Precipitation Wind Pressure Humidity
    00:00 +8°C° 0 mm 6 mps 758 mmHg 63%
    01:00 +8°C° 0 mm 6 mps 758 mmHg 63%
    02:00 +8°C° 0 mm 7 mps 758 mmHg 63%
    03:00 +8°C° 0 mm 6 mps 758 mmHg 63%
    04:00 +7°C° 0 mm 6 mps 757 mmHg 63%
    05:00 +7°C° 0 mm 6 mps 757 mmHg 63%
    06:00 +7°C° 0 mm 6 mps 757 mmHg 63%
    07:00 +8°C° 0 mm 6 mps 757 mmHg 64%
    08:00 +8°C° 0 mm 6 mps 758 mmHg 64%
    09:00 +9°C° 0 mm 7 mps 758 mmHg 62%
    10:00 +9°C° 0 mm 7 mps 758 mmHg 59%
    11:00 +10°C° 0 mm 7 mps 758 mmHg 56%
    12:00 +11°C° 0 mm 7 mps 757 mmHg 56%
    13:00 +11°C° 0 mm 6 mps 756 mmHg 55%
    14:00 +11°C° 0 mm 6 mps 756 mmHg 55%
    15:00 +12°C° 0 mm 5 mps 755 mmHg 59%
    16:00 +10°C° 0 mm 5 mps 755 mmHg 63%
    17:00 +10°C° 0 mm 4 mps 755 mmHg 67%
    18:00 +9°C° 0 mm 5 mps 755 mmHg 69%
    19:00 +9°C° 0 mm 5 mps 755 mmHg 71%
    20:00 +9°C° 0 mm 6 mps 755 mmHg 73%
    21:00 +9°C° 0 mm 6 mps 755 mmHg 73%
    22:00 +10°C° 0 mm 6 mps 755 mmHg 74%
    23:00 +10°C° 0 mm 6 mps 754 mmHg 75%

    28 June, Friday

    Time Temperature Precipitation Wind Pressure Humidity
    00:00 +10°C° 0 mm 5 mps 754 mmHg 78%
    01:00 +10°C° 0 mm 5 mps 754 mmHg 81%
    02:00 +11°C° 0 mm 4 mps 753 mmHg 84%
    03:00 +11°C° 0 mm 4 mps 753 mmHg 86%
    04:00 +12°C° 0 mm 4 mps 752 mmHg 88%
    05:00 +12°C° 0 mm 3 mps 752 mmHg 90%
    06:00 +12°C° 0.1 mm 3 mps 752 mmHg 92%
    07:00 +13°C° 0.1 mm 3 mps 751 mmHg 94%
    08:00 +13°C° 0.1 mm 3 mps 751 mmHg 96%
    09:00 +14°C° 0.2 mm 2 mps 751 mmHg 96%
    10:00 +14°C° 0.2 mm 2 mps 750 mmHg 97%
    11:00 +15°C° 0.2 mm 1 mps 750 mmHg 97%
    12:00 +15°C° 0.3 mm 1 mps 749 mmHg 97%
    13:00 +15°C° 0.3 mm 1 mps 749 mmHg 97%
    14:00 +15°C° 0.3 mm 1 mps 748 mmHg 97%
    15:00 +15°C° 0 mm 1 mps 748 mmHg 97%
    16:00 +15°C° 0 mm 1 mps 748 mmHg 97%
    17:00 +15°C° 0 mm 2 mps 748 mmHg 97%
    18:00 +15°C° 0 mm 2 mps 749 mmHg 97%
    19:00 +14°C° 0 mm 2 mps 749 mmHg 96%
    20:00 +13°C° 0 mm 3 mps 750 mmHg 96%
    21:00 +13°C° 0 mm 3 mps 750 mmHg 95%
    22:00 +13°C° 0 mm 3 mps 751 mmHg 95%
    23:00 +12°C° 0 mm 3 mps 751 mmHg 94%

    29 June, Saturday

    Time Temperature Precipitation Wind Pressure Humidity
    00:00 +12°C° 0 mm 4 mps 751 mmHg 94%
    01:00 +12°C° 0 mm 4 mps 752 mmHg 93%
    02:00 +12°C° 0 mm 4 mps 752 mmHg 93%
    03:00 +12°C° 0 mm 5 mps 753 mmHg 93%
    04:00 +10°C° 0 mm 5 mps 753 mmHg 92%
    05:00 +10°C° 0 mm 5 mps 753 mmHg 92%
    06:00 +9°C° 0 mm 6 mps 754 mmHg 89%
    07:00 +9°C° 0 mm 6 mps 755 mmHg 85%
    08:00 +8°C° 0 mm 7 mps 756 mmHg 82%
    09:00 +9°C° 0 mm 7 mps 756 mmHg 78%
    10:00 +9°C° 0 mm 8 mps 757 mmHg 75%
    11:00 +10°C° 0 mm 8 mps 757 mmHg 71%
    12:00 +10°C° 0 mm 8 mps 757 mmHg 65%
    13:00 +10°C° 0 mm 8 mps 757 mmHg 60%
    14:00 +10°C° 0 mm 8 mps 757 mmHg 54%
    15:00 +9°C° 0 mm 8 mps 757 mmHg 56%
    16:00 +7°C° 0 mm 8 mps 758 mmHg 59%
    17:00 +6°C° 0 mm 8 mps 758 mmHg 61%
    18:00 +5°C° 0 mm 8 mps 759 mmHg 65%
    19:00 +5°C° 0 mm 8 mps 760 mmHg 68%
    20:00 +4°C° 0 mm 8 mps 760 mmHg 72%
    21:00 +5°C° 0 mm 8 mps 761 mmHg 73%
    22:00 +6°C° 0 mm 7 mps 762 mmHg 75%
    23:00 +8°C° 0 mm 6 mps 762 mmHg 76%
    Show more